Preview of NWS' New Version of Forecast
This preview is not operational and should not be used for support decisions.
Latest weather observations around

Spokane, Spokane International Airport (KGEG)

Using English Units (Switch to International System of Units)
Date/ Time (PDT) Wind (mph) Vis. (mi) Weather Sky Cond. Temp (°F) Rel. Humidity Wind Chill (°F) Heat Index (°F) Pressure Precip. (in)
Air Dwpt 6 hour Altimeter (inHg) Sea level (inHg) 1 hr 3 hr 6 hr
Max Min
Jun 25 16:53 SW 7 10 Partly Cloudy FEW085 FEW120 FEW220 SCT250 74 34     23%   72 29.81 29.79      
Jun 25 15:53 SSW 11 10 Partly Cloudy FEW085 FEW120 SCT220 74 35     24%   72 29.82 29.8      
Jun 25 14:53 S 9 10 Clear   73 36     26%   71 29.83 29.8      
Jun 25 13:53 W 9 10 Mostly Cloudy SCT070 SCT150 BKN250 72 38     29%   70 29.85 29.82      
Jun 25 12:53 3 10 Mostly Cloudy FEW065 FEW150 BKN250 70 38     31%     29.86 29.83      
Jun 25 11:53 3 10 Mostly Cloudy FEW055 FEW170 BKN250 71 38     30%   69 29.87 29.84      
Jun 25 10:53 ENE 6 10 Mostly Cloudy FEW050 BKN250 67 39     36%     29.88 29.85      
Jun 25 09:53 E 6 10 Mostly Cloudy FEW045 FEW170 BKN250 62 42     48%     29.88 29.86      
Jun 25 08:53 E 3 10 Mostly Cloudy FEW170 BKN250 58 45     62%     29.89 29.86      
Jun 25 07:53 E 6 10 Mostly Cloudy FEW170 BKN250 55 45     69%     29.89 29.86      
Jun 25 06:53 ENE 8 10 Mostly Cloudy FEW170 BKN250 53 45     74%     29.89 29.87      
Jun 25 05:53 ENE 6 10 Mostly Cloudy FEW120 SCT170 BKN250 52 44     74%     29.88 29.86      
Jun 25 04:53 E 3 10 Mostly Cloudy FEW110 BKN240 50 44     80%     29.88 29.85      
Jun 25 03:53 NE 6 10 Partly Cloudy FEW110 SCT200 51 43     74%     29.87 29.85      
Jun 25 02:53 ENE 7 10 Partly Cloudy SCT200 53 43     69%     29.87 29.85      
Jun 25 01:53 ENE 6 10 Mostly Clear FEW190 55 43     64%     29.87 29.85      
Jun 25 00:53 E 5 10 Partly Cloudy SCT210 57 42     57%     29.87 29.85      
Jun 24 23:53 NE 6 10 Partly Cloudy FEW080 SCT250 57 35     44%     29.88 29.85      
Jun 24 22:53 SSE 5 10 Mostly Clear FEW080 FEW200 61 35     38%     29.87 29.84      
Jun 24 21:53 S 6 10 Partly Cloudy FEW080 SCT220 62 35     36%     29.87 29.85      
Jun 24 20:53 S 6 10 Partly Cloudy FEW080 SCT220 65 35     33%     29.87 29.84      
Jun 24 19:53 S 8 10 Mostly Cloudy FEW090 BKN220 67 35     31%     29.87 29.84      
Jun 24 18:53 SW 15 10 Mostly Cloudy FEW060 FEW090 BKN220 69 35     29%     29.87 29.85      
Jun 24 17:53 S 11 10 Clear   70 36     29%     29.88 29.86      
Jun 24 16:53 SSW 11 10 Mostly Clear FEW060 FEW200 69 36     30%     29.89 29.87      
Jun 24 14:53 S 16 10 Mostly Cloudy SCT060 BKN090 68 38     33%     29.91 29.89      
Jun 24 13:53 SW 14 10 Mostly Cloudy BKN060 BKN080 67 38     34%     29.93 29.91      
Jun 24 12:53 S 13 10 Mostly Cloudy BKN055 BKN075 66 38     36%     29.94 29.92      
Jun 24 11:53 S 10 10 Mostly Cloudy FEW045 BKN055 BKN070 63 39     41%     29.95 29.93      
Jun 24 10:53 SW 14 10 Mostly Cloudy FEW035 BKN060 BKN080 61 39     44%     29.96 29.94      
Jun 24 09:53 SSW 14 10 Mostly Cloudy FEW030 SCT050 BKN080 59 40     49%     29.96 29.94      
Jun 24 08:53 S 13 10 Mostly Cloudy FEW025 SCT040 BKN075 BKN250 55 40     57%     29.96 29.94      
Jun 24 07:53 S 10 10 Partly Cloudy FEW020 FEW075 SCT250 53 40     61%     29.96 29.94      
Jun 24 06:53 S 8 10 Partly Cloudy FEW012 FEW075 SCT250 50 40     68%     29.96 29.93      
Jun 24 05:53 SSE 7 10 Mostly Clear FEW075 FEW110 FEW170 47 39     74% 44   29.95 29.93      
Jun 24 04:53 SSW 11 10 Mostly Clear FEW075 FEW110 FEW170 48 39     71% 43   29.93 29.91      
Jun 24 03:53 SSW 11 10 Partly Cloudy FEW080 FEW180 SCT350 49 39     69% 44   29.93 29.91      
Jun 24 02:53 S 11 10 Mostly Clear FEW080 FEW170 50 38     63%     29.91 29.89      
Jun 24 01:53 SSW 14 10 Mostly Clear FEW130 53 35     50%     29.91 29.88      
Jun 24 00:53 SSW 14 10 Mostly Cloudy FEW130 SCT170 BKN210 56 35     45%     29.9 29.87      
Jun 23 23:53 SW 11 10 Mostly Cloudy FEW085 BKN120 BKN180 60 35     39%     29.9 29.87      
Jun 23 22:53 WSW 11 10 Mostly Cloudy FEW080 BKN120 BKN200 63 35     35%     29.9 29.87      
Jun 23 21:53 SSW 11 10 Mostly Cloudy FEW080 FEW120 BKN200 64 41     43%     29.9 29.87      
Jun 23 20:53 SSW 16 10 Mostly Cloudy FEW075 SCT100 BKN200 65 42     43%     29.89 29.87      
Jun 23 19:53 SSW 14 10 Mostly Cloudy FEW070 SCT100 BKN160 BKN200 67 41     39%     29.9 29.87      
Jun 23 18:53 SW 18 10 Mostly Cloudy FEW070 BKN100 BKN200 69 41     36%     29.91 29.88      
Jun 23 17:53 SW 21 10 Mostly Cloudy and Windy FEW075 SCT100 BKN200 70 40     33%     29.91 29.89      
Jun 23 16:53 SW 21 10 Mostly Cloudy and Windy FEW070 BKN095 BKN200 71 38     30%   69 29.93 29.9      
Jun 23 15:53 SSW 18 10 Mostly Cloudy FEW070 BKN095 BKN200 71 38     30%   69 29.94 29.91      
Jun 23 14:53 SW 22 10 Mostly Cloudy and Windy FEW050 SCT070 BKN090 BKN200 71 37     29%   69 29.94 29.91      
Jun 23 13:53 SW 21 10 Mostly Cloudy and Windy FEW040 SCT070 BKN090 BKN200 69 37     31%     29.96 29.93      
Jun 23 12:53 WSW 20 10 Cloudy and Windy FEW040 SCT060 BKN085 OVC200 70 39     32%     29.97 29.93      
Jun 23 11:53 SW 13 10 Mostly Cloudy FEW035 SCT050 SCT080 BKN250 66 41     40%     29.98 29.95      
Jun 23 10:53 SW 13 10 Mostly Cloudy FEW035 SCT042 SCT080 BKN250 64 42     45%     29.99 29.96      
Jun 23 09:53 SW 11 10 Mostly Cloudy SCT032 BKN040 BKN090 59 41     51%     29.99 29.97      
Jun 23 08:53 SW 16 10 Mostly Cloudy SCT034 BKN085 BKN250 59 41     51%     29.99 29.96      
Jun 23 07:53 SSW 11 10 Mostly Cloudy FEW030 FEW080 BKN250 57 41     55%     29.99 29.96      
Jun 23 06:53 SSW 15 10 Mostly Cloudy FEW060 FEW100 BKN280 54 42     64%     29.98 29.96      
Jun 23 05:53 S 10 10 Mostly Cloudy FEW070 BKN280 52 41     66%     29.98 29.95      
Jun 23 04:53 SSW 13 10 Mostly Cloudy FEW070 SCT160 BKN280 52 41     66%     29.97 29.94      
Jun 23 03:53 SSW 16 10 Mostly Cloudy SCT070 BKN100 BKN140 54 42     64%     29.96 29.93      
Jun 23 02:53 SSW 14 10 Clear   56 41     57%     29.95 29.92      
Jun 23 01:53 SSW 8 10 Mostly Cloudy SCT075 BKN090 BKN140 58 43     57%     29.94 29.91      
Jun 23 00:53 S 6 10 Mostly Cloudy FEW090 BKN140 61 43     52%     29.95 29.91      
Jun 22 23:53 S 8 10 Mostly Cloudy FEW070 BKN150 64 42     45%     29.95 29.91      
Jun 22 22:53 S 8 10 Mostly Cloudy FEW070 BKN150 64 43     46%     29.96 29.93      
Jun 22 21:53 S 8 10 Mostly Cloudy FEW065 BKN150 66 42     42%     29.97 29.94      
Jun 22 20:53 SSW 8 10 Mostly Cloudy FEW065 BKN150 BKN200 68 41     37%     29.97 29.94      
Jun 22 19:53 SW 15 10 Mostly Cloudy FEW065 SCT150 BKN200 71 40     32%   69 29.98 29.95      
Jun 22 18:53 SW 18 10 Mostly Cloudy FEW065 SCT150 BKN200 72 41     33%   70 29.99 29.96      
Notice The following observation data may not be complete
May 15 01:53 Calm 10 Clear CLR   41      %     29.92 29.88      
May 14 16:53 Calm 10 Mostly Clear FEW060 FEW250 82 32     16%   80 29.96 29.91      
May 14 02:53 Calm 10 Clear   58 45     62%     30.01 29.97      
May 13 21:53 NW 3 10 Mostly Clear FEW100 65 43     45%     29.98 29.94      
May 13 15:53 NNE 9 10 Mostly Clear FEW060 80 36     20%   79 29.95 29.91      
May 12 05:53 Calm 10 Patchy Fog FEW200 45 43     93%     30.09 30.09      
May 12 01:53 Calm 10 Clear CLR 48 44     86%     30.09 30.09      
May 11 05:53 Calm 10 Patchy Fog FEW006 SCT130 BKN200 43 42     97%     30.02 30.03      
Jun 10 19:53 SSW 10 10 Clear   60 37     42%     29.81 29.8      
Jun 10 16:49   10 Mostly Cloudy FEW030 SCT050 BKN065 BKN130 63 36     36%     29.77        
Jun 08 07:53 SSW 10 10 Cloudy SCT070 BKN090 OVC150 66 50     56%     29.67 29.6      
Jun 07 10:53 ENE 10 10 Partly Cloudy FEW012 SCT240 77 50     39%   76 29.84 29.78      
Notice The following observation data may not be complete
Jun 07 05:53 NE 6 10 Partly Cloudy FEW170 SCT200   47      %     29.9 29.85